ISS (ZARYA), 25544

Orbit data source: Space-Track

The International Space Station (ISS) is a collaborative project involving NASA, Roscosmos, ESA, JAXA, and CSA. It is the largest human-made structure in low Earth orbit (LEO). It serves as a microgravity laboratory where scientific research is conducted in various fields, such as astrobiology, astronomy, meteorology, and physics. Astronauts have continuously inhabited the ISS since Nov 2000, and the space station supports testing spacecraft systems and equipment needed for long-duration missions to the Moon and Mars.

Loading next visibility...
Identifier
25544, 1998-067A
Orbit
LEO
Country
Flag of CISCIS
Related business
Manufacturer
Khrunichev
Mission
Operational Civil Spaceship
Bus & Motor
77KS, Unknown motor
Mass
20,351 kg wet, ~19,000 kg dry
Launch date (UTC)
1998-11-20 (28 years ago)
Launch vehicle
PROTON-K
Launch site
Tyuratam Missile And Space Complex (TTMTR)
Object type
Payload
Rocket body
Debris
Shape & HBR
Irr, 66.1 m
Radar Cross Section
5762.400 m², Large (>1 m²)

Expand to show TLE details & history
Last TLE update: 14 hours ago

TLE from 14 hours ago
0 ISS (ZARYA)
1 25544U 98067A   26246.56303513  .00003925  00000-0  79431-4 0  9993
2 25544  51.6315 272.1807 0005017 103.2669 256.8879 15.48980167583909
Epoch: 2026-09-03T13:30Z
TLE epoch observation values (Epoch: 2026-09-03T13:30:46.235Z)
Latitude
-0.00002°
Longitude
86.78862°
Altitude
421.224 km
Speed
7.659 km/s
True Right ascension
18h 08m 43s
True Declination
0° 00' 00"
Sunlit
Object was in daylight at epoch
Visualization orbit readout
Latitude
Unknown
Longitude
Unknown
Altitude
Unknown
Speed
Unknown
Apparent Right ascension
Unknown
Apparent Declination
Unknown
Sunlit
N/A
Visualization observer readout
Local Sidereal Time
19:38:36
Azimuth
Unknown
Elevation
Unknown
Doppler factor
Unknown
Orbital elements
Apogee altitude
423.628 km
Perigee altitude
416.807 km
Semi-major axis
6,798.354 km
Eccentricity
0.0005
Inclination
51.6315°
RAAN
272.1807°
Arg. of periapsis
103.2669°
True anomaly
256.83192°
Mean anomaly
256.8879°
Eccentric anomaly
256.85991°
Mean motion
3.87202 °/min
Orbital period
92.97 mins
BSTAR
0.000079431
Loading maneuver chart data...
Computing Atmospheric mass density...

Documentation

Showing up to 5 results
|